Regional Weather Roundup
Issued by NWS

Home | Current Version | Previous Version | Text Only | Print | Product List | Glossary Off
Versions: 1 2 3 4 5 6 7 8 9 10 11 12 13 14 15 16 17 18 19 20 21 22 23 24 25 26 27 28 29 30 31 32 33 34 35 36 37 38 39 40 41 42 43 44 45 46 47 48 49 50

000
ASUS44 KMEG 200410
RWRTN
TENNESSEE HOURLY STATE WEATHER ROUNDUP
NATIONAL WEATHER SERVICE MEMPHIS TN
1000 PM CST SUN NOV 19 2017

TNZ002-004-019-021-049-052-054-088>092-200500-
WEST TENNESSEE

CITY           SKY/WX    TMP DP  RH WIND       PRES   REMARKS
MEMPHIS INTL   CLEAR     36  30  79 CALM      30.26R
NWS MEMPHIS      N/A     32 N/A N/A MISG        N/A
JACKSON        CLEAR     28  27  96 CALM      30.26S
DYERSBURG      CLEAR     32  29  88 CALM      30.27S
COVINGTON      CLEAR     28  27  93 CALM      30.27R
UNION CITY     CLEAR     28  25  86 CALM      30.26S
BOLIVAR        CLEAR     28  27  93 CALM      30.26R
HUNTINGDON     CLEAR     28  27  93 CALM      30.24F
LEXINGTON      CLEAR     28  27  93 CALM      30.25S
SELMER         CLEAR     28  27  93 CALM      30.25R
SAVANNAH       CLEAR     28  28 100 CALM      30.25R
$$

TNZ008-025-027-028-033-062-065-066-200500-
NORTH MIDDLE TENNESSEE

CITY           SKY/WX    TMP DP  RH WIND       PRES   REMARKS
NASHVILLE      CLEAR     33  25  72 CALM      30.25R
PORTLAND       CLEAR     30  25  80 CALM      30.23S
CLARKSVILLE    CLEAR     30  24  78 CALM      30.25S
SMYRNA         CLEAR     27  25  92 CALM      30.27R
COOKEVILLE     CLEAR     27  27 100 CALM      30.22R
GALLATIN       CLEAR     30  25  80 CALM      30.27S
CROSSVILLE     CLEAR     30  23  75 CALM      30.19R
$$

TNZ061-075-076-078-094-096-097-200500-
SOUTH MIDDLE TENNESSEE

CITY           SKY/WX    TMP DP  RH WIND       PRES   REMARKS
FAYETTEVILLE   CLEAR     34  25  69 NE3       30.21F
TULLAHOMA      CLEAR     28  25  86 W3        30.21S
WINCHESTER     CLEAR     27  25  93 CALM      30.22S
MCMINNVILLE    CLEAR     28  25  86 CALM      30.22R
COLUMBIA       CLEAR     30  27  86 CALM      30.23R
SHELBYVILLE    CLEAR     28  27  93 CALM      30.23S
$$

TNZ017-018-042-046-047-200500-
NORTHEAST TENNESSEE

CITY           SKY/WX    TMP DP  RH WIND       PRES   REMARKS
TRI CITIES     CLEAR     32  27  81 SW3       30.16R
ELIZABETHTON   CLEAR     32  27  80 W5        30.16R WCI  27
$$

TNZ012-013-036-069-073-074-200500-
CENTRAL EAST TENNESSEE

CITY           SKY/WX    TMP DP  RH WIND       PRES   REMARKS
KNOXVILLE      CLEAR     36  31  82 CALM      30.19S
OAK RIDGE      CLEAR     32  30  92 CALM      30.22R
DOWNTOWN KNOXV CLEAR     34  32  93 CALM      30.22R
GATLINBURG     CLEAR     30  28  93 CALM      30.20S
MORRISTOWN     CLEAR     36  27  69 NW7       30.17F WCI  30
JACKSBORO      CLEAR     28  28 100 CALM      30.24R
$$

TNZ083-085-099-200500-
SOUTHEAST TENNESSEE

CITY           SKY/WX    TMP DP  RH WIND       PRES   REMARKS
CHATTANOOGA    CLEAR     35  27  72 NW7       30.22S WCI  29
$$

SKY/WX REPORTED AS FAIR MEANS FEW OR NO CLOUDS BELOW
12 THOUSAND FEET.





USA.gov is the U.S. government's official web portal to all federal, state and local government web resources and services.